CW3660 Weather Reports


time (UTC)temp
F
wind
direction
speed
knots
gust
knots
rain 1hr
in
rain 24hr
in
rain mn
in
humidity
%
barometer
mb
20260505014016 61 203 2.6 7.0 0.00 0.00 0.00 50 1009.4
20260505013016 62 225 3.5 8.7 0.00 0.00 0.00 49 1009.2
20260505012017 62 225 3.5 7.8 0.00 0.00 0.00 49 1009.1
20260505011016 62 203 3.5 10.4 0.00 0.00 0.00 48 1008.9
20260505010016 63 225 4.3 12.2 0.00 0.00 0.00 47 1008.8
20260505005016 63 225 3.5 11.3 0.00 0.00 0.00 47 1008.6
20260505004016 63 203 3.5 10.4 0.00 0.00 0.00 46 1008.3
20260505003016 64 225 5.2 13.9 0.00 0.00 0.00 46 1008.0
20260505002016 64 203 5.2 17.4 0.00 0.00 0.00 45 1007.9
20260505001016 65 203 4.3 9.6 0.00 0.00 0.00 44 1007.7
20260505000016 65 203 4.3 15.6 0.00 0.00 0.00 43 1007.4
20260504235016 66 203 3.5 11.3 0.00 0.00 0.00 41 1007.2
20260504234016 67 203 4.3 11.3 0.00 0.00 0.00 40 1006.9
20260504233036 68 203 5.2 12.2 0.00 0.00 0.00 37 1006.8
20260504232036 70 225 2.6 7.8 0.00 0.00 0.00 33 1006.5
20260504231015 70 248 2.6 7.0 0.00 0.00 0.00 33 1006.2
20260504230016 70 248 2.6 7.8 0.00 0.00 0.00 32 1006.2
20260504225036 70 225 2.6 7.8 0.00 0.00 0.00 32 1006.1
20260504224016 71 225 4.3 8.7 0.00 0.00 0.00 31 1006.0
20260504223016 71 270 3.5 7.8 0.00 0.00 0.00 31 1006.0
20260504222016 71 225 2.6 7.8 0.00 0.00 0.00 32 1005.9
20260504221017 71 225 3.5 8.7 0.00 0.00 0.00 31 1006.0
20260504220016 71 248 4.3 10.4 0.00 0.00 0.00 31 1006.0
20260504215035 71 203 3.5 10.4 0.00 0.00 0.00 32 1006.1
20260504214036 71 225 4.3 9.6 0.00 0.00 0.00 31 1006.1
20260504213016 71 225 4.3 12.2 0.00 0.00 0.00 31 1006.0
20260504212016 71 270 3.5 9.6 0.00 0.00 0.00 30 1006.0
20260504211016 72 248 3.5 11.3 0.00 0.00 0.00 31 1006.0
20260504210035 72 225 3.5 12.2 0.00 0.00 0.00 29 1005.9
20260504205016 73 225 3.5 13.9 0.00 0.00 0.00 30 1006.1
20260504204015 73 248 4.3 13.9 0.00 0.00 0.00 30 1006.0
20260504203016 73 248 3.5 7.8 0.00 0.00 0.00 30 1006.1
20260504202015 72 248 4.3 9.6 0.00 0.00 0.00 29 1006.0
20260504201015 72 248 2.6 7.8 0.00 0.00 0.00 30 1006.0
20260504200036 72 225 4.3 9.6 0.00 0.00 0.00 29 1006.1
20260504195015 73 248 4.3 12.2 0.00 0.00 0.00 28 1006.2
20260504194015 73 225 5.2 13.9 0.00 0.00 0.00 27 1006.2
20260504193016 73 248 4.3 13.0 0.00 0.00 0.00 28 1006.1
20260504192015 72 248 5.2 13.0 0.00 0.00 0.00 27 1006.2
20260504191015 72 248 5.2 14.8 0.00 0.00 0.00 28 1006.4
20260504190015 71 225 5.2 13.0 0.00 0.00 0.00 29 1006.5
20260504185015 71 225 6.1 14.8 0.00 0.00 0.00 27 1006.6
20260504184035 72 248 5.2 13.0 0.00 0.00 0.00 28 1006.7
20260504183017 72 225 4.3 13.0 0.00 0.00 0.00 28 1006.8
20260504182015 72 248 5.2 16.5 0.00 0.00 0.00 28 1006.8
20260504181017 72 225 3.5 8.7 0.00 0.00 0.00 29 1006.8
20260504180017 70 225 6.1 16.5 0.00 0.00 0.00 29 1006.9
20260504175017 71 225 5.2 12.2 0.00 0.00 0.00 29 1006.9
20260504174017 70 248 5.2 13.9 0.00 0.00 0.00 30 1007.1
20260504173017 70 248 5.2 11.3 0.00 0.00 0.00 30 1007.1
20260504172037 69 248 6.1 13.9 0.00 0.00 0.00 30 1007.2
20260504171017 68 225 7.0 19.1 0.00 0.00 0.00 30 1007.2
20260504151017 66 248 4.3 11.3 0.00 0.00 0.00 36 1008.6
20260504141017 63 225 3.5 8.7 0.00 0.00 0.00 41 1009.1
20260504081016 45 180 0.9 2.6 0.00 0.01 0.00 61 1010.1
20260504050016 38 0.0 1.7 0.00 0.01 0.00 70 1010.0
20260504045016 38 0.0 0.9 0.00 0.01 0.00 70 1009.9
20260504044036 38 0.0 0.0 0.00 0.01 0.00 69 1010.0
20260504043016 39 0.0 0.0 0.00 0.01 0.00 68 1010.0
20260504042016 39 0.0 0.0 0.00 0.01 0.00 68 1010.0
20260504041016 39 0.0 0.0 0.00 0.01 0.00 67 1009.9
20260504040016 39 0.0 0.0 0.00 0.01 0.01 67 1009.8
20260504035017 40 0.0 0.0 0.00 0.01 0.01 67 1009.7
20260504034036 40 0.0 0.0 0.00 0.01 0.01 66 1009.7
20260504033016 40 0.0 0.9 0.00 0.01 0.01 65 1009.6
20260504032016 41 315 0.9 1.7 0.00 0.01 0.01 64 1009.6
20260504031016 41 0.0 0.0 0.00 0.01 0.01 61 1009.6
20260504030016 42 0.0 0.0 0.00 0.01 0.01 60 1009.6
20260504025036 42 0.0 0.0 0.00 0.01 0.01 60 1009.5
20260504024016 42 0.0 0.0 0.00 0.01 0.01 59 1009.4
20260504023016 43 0.0 0.0 0.00 0.01 0.01 59 1009.5
20260504022036 43 0.0 0.9 0.00 0.01 0.01 59 1009.5
20260504021016 43 0.0 0.0 0.00 0.01 0.01 56 1009.4
20260504020016 44 0.0 1.7 0.00 0.01 0.01 56 1009.3
20260504015016 44 0.0 1.7 0.00 0.01 0.01 56 1009.4